EST,Max TemperatureF,Mean TemperatureF,Min TemperatureF,Max Dew PointF,MeanDew PointF,Min DewpointF,Max Humidity, Mean Humidity, Min Humidity, Max Sea Level PressureIn, Mean Sea Level PressureIn, Min Sea Level PressureIn, Max VisibilityMiles, Mean VisibilityMiles, Min VisibilityMiles, Max Wind SpeedMPH, Mean Wind SpeedMPH, Max Gust SpeedMPH,PrecipitationIn, CloudCover, Events, WindDirDegrees
2013-12-1,46,37,27,32,28,24,92,75,58,30.11,30.05,30.00,9,7,6,13,5,16,0.00,7,,267
2013-12-2,40,34,28,30,25,19,89,69,48,30.00,29.95,29.91,10,8,6,8,4,13,0.00,7,,346
2013-12-3,40,34,27,37,31,22,92,84,75,29.93,29.90,29.86,10,5,2,10,5,14,0.09,8,Rain-Snow,68
2013-12-4,55,46,37,50,42,36,96,87,77,29.92,29.82,29.65,10,4,1,18,6,25,T,8,Rain,118
2013-12-5,59,45,31,54,37,20,89,73,56,30.14,29.84,29.63,10,10,9,32,15,41,0.00,8,,226
2013-12-6,31,26,21,21,16,12,69,62,55,30.42,30.27,30.15,10,10,10,14,9,17,0.00,8,,288
2013-12-7,26,21,16,12,8,6,74,58,42,30.64,30.55,30.41,10,10,9,16,8,20,T,4,Snow,286
2013-12-8,30,23,15,29,18,7,92,77,62,30.60,30.31,30.00,10,6,1,15,8,21,0.03,7,Rain-Snow,51
2013-12-9,30,25,20,29,22,12,100,84,68,30.13,30.00,29.90,10,6,2,25,16,36,0.04,8,Snow,204
2013-12-10,22,17,12,12,8,3,76,61,45,30.22,30.11,29.99,10,10,8,30,15,37,T,7,Snow,228
2013-12-11,24,16,8,18,11,0,84,73,61,30.48,30.31,30.22,10,7,2,18,11,23,0.01,7,Snow,236
2013-12-12,19,12,5,10,3,-2,83,67,51,30.49,30.37,30.22,10,9,2,22,13,25,T,6,Snow,215
2013-12-13,29,24,18,19,15,10,75,69,63,30.30,30.23,30.16,10,9,7,16,7,21,0.00,8,,200
2013-12-14,22,21,19,19,16,10,92,80,68,30.30,30.06,29.80,10,2,0,17,11,25,0.48,8,Fog-Snow,25
2013-12-15,25,20,15,21,16,8,92,83,74,30.06,29.88,29.80,10,6,1,25,12,33,0.03,8,Snow,243
2013-12-16,21,13,5,16,9,1,88,69,50,30.20,30.11,29.99,10,6,0,14,5,28,0.08,6,Fog-Snow,101
2013-12-17,27,21,14,21,17,12,92,80,68,30.03,29.97,29.89,7,4,0,22,10,26,0.03,8,Snow,223
2013-12-18,30,26,21,22,18,14,88,75,62,30.14,30.06,29.94,10,7,1,21,11,23,0.10,8,Snow,196
2013-12-19,40,33,25,32,27,16,89,76,63,30.01,29.96,29.89,10,10,4,17,8,20,0.00,8,,190
2013-12-20,41,38,34,41,36,34,100,95,89,29.91,29.81,29.73,3,1,0,13,4,15,0.34,8,Fog-Rain,41
2013-12-21,35,34,32,36,33,31,100,95,89,29.87,29.78,29.67,7,2,0,20,8,23,0.88,8,Fog-Rain,347
2013-12-22,39,36,33,36,33,31,100,90,79,29.98,29.73,29.54,10,6,1,28,11,37,0.25,8,Rain,223
2013-12-23,35,29,23,32,24,13,96,77,58,30.32,30.17,29.98,10,8,1,21,12,24,0.02,8,Snow,247
2013-12-24,23,18,12,12,8,4,80,64,47,30.58,30.43,30.31,10,8,1,18,10,25,T,5,Snow,269
2013-12-25,25,18,11,22,15,6,88,81,73,30.53,30.34,30.16,10,8,1,21,10,26,0.01,8,Snow,166
2013-12-26,29,27,24,25,21,15,100,82,63,30.32,30.16,30.04,10,5,0,24,12,32,0.05,8,Fog-Snow,209
2013-12-27,39,33,26,30,27,21,85,80,75,30.34,30.24,30.11,10,9,2,23,10,30,T,7,Snow,201
2013-12-28,47,39,31,35,31,29,89,75,60,30.14,30.05,29.93,10,10,9,24,13,32,0.00,3,,203
2013-12-29,44,34,23,30,26,16,81,72,62,30.01,29.83,29.71,10,9,5,21,12,26,T,8,Rain-Snow,263
2013-12-30,23,19,14,16,9,2,77,63,49,30.30,30.19,30.03,10,9,6,18,8,22,T,8,Snow,257
2013-12-31,23,19,15,16,12,7,92,77,61,30.35,30.19,30.05,10,4,1,21,13,26,0.08,8,Snow,233